Content
SEND FEEDBACK

Daily
Averages
Monthly
Summary
United States of America

HOUGHTON LAKE, MICHIGAN


Home > North America > United States > Michigan
Elevation: 349 meters     Latitude: 44 21N     Longitude: 084 40W

WEATHER
 
SELECT A DAY
Number of Records: 250,902;   Date Range: 1/1/95 - 10/24/14
 
SHARE

PRINT THIS DATA

[ ← Previous Day ]
WEATHER ALMANAC - 3 JANUARY, 2013
[ Next Day → ]
[ °F ]   °C
Weather ElementAverageHighLow
Temperature-4.7 °C-3 °C (5:14 pm)-6.7 °C (6:53 am)
Dewpoint-7.1 °C-5.6 °C (4:53 pm)-8.3 °C (5:53 am)
Humidity84 %93 % (3:20 am)78 % (1:53 pm)
Barometer1016.6 hPa1019 hPa (6:53 pm)1014.6 hPa (5:09 am)
Wind Speed15.8 km/h24.1 km/h (11:45 pm)
Wind Gust44.4 km/h (11:45 pm)
Weather ElementAverage
Visibility12.9 km
Wind DirectionWSW (240 °)

Weather ElementTotal
Precipitation---
Heating Degree Days23.2 (Base 18.3)
Averaged from 32 records on 3 January, 2013
WEATHER CONDITIONS BREAKOUT
WIND DIRECTION BREAKOUT
WEATHER BY HOUR - 3 JANUARY, 2013
[ °F ]   °C
Local TimeTemperatureDewpointHumidityBarometerVisibilityWind DirectionWind SpeedGust SpeedPrecipitationEventsConditions
1:53 AM-5.6 °C-6.7 °C92 %1018.3 hPa9.7 kmSouth (170°)7.4 km/h0 mmSnowLight Snow
2:53 AM-5.6 °C-6.7 °C92 %1017.9 hPa8 kmSouth (190°)9.3 km/h0 mmSnowLight Snow
3:20 AM-6 °C-7 °C93 %1015.9 hPa12.9 kmSouth (170°)7.4 km/h0 mmOvercast
3:29 AM-6 °C-7 °C93 %1015.9 hPa11.3 kmSouth (180°)9.3 km/h0 mmSnowLight Snow
3:53 AM-5.6 °C-7.8 °C85 %1017.6 hPa14.5 kmSouth (190°)9.3 km/h0 mmOvercast
4:53 AM-5.6 °C-7.8 °C85 %1016.6 hPa16.1 kmSouth (190°)13 km/h0 mmOvercast
5:09 AM-6 °C-8 °C86 %1014.6 hPa16.1 kmSouth (190°)13 km/hOvercast
5:53 AM-6.1 °C-8.3 °C85 %1016.3 hPa14.5 kmSouth (180°)13 km/hOvercast
6:53 AM-6.7 °C-8.3 °C89 %1016.3 hPa14.5 kmSSW (210°)9.3 km/hOvercast
7:53 AM-6.7 °C-8.3 °C89 %1016.6 hPa12.9 kmSW (220°)16.7 km/h0 mmOvercast
8:49 AM-6 °C-8 °C86 %1014.9 hPa9.7 kmWSW (250°)13 km/hOvercast
8:53 AM-6.1 °C-7.8 °C88 %1016.9 hPa9.7 kmWSW (250°)16.7 km/hOvercast
9:33 AM-6 °C-8 °C86 %1014.6 hPa8 kmSW (230°)14.8 km/hOvercast
9:53 AM-5.6 °C-7.2 °C89 %1016.6 hPa8 kmSW (230°)13 km/hOvercast
10:53 AM-5 °C-7.2 °C85 %1016.6 hPa8 kmWSW (250°)16.7 km/hOvercast
11:53 AM-4.4 °C-7.2 °C81 %1016.9 hPa9.7 kmWest (270°)16.7 km/h0 mmHaze
12:32 PM-4 °C-7 °C80 %1014.6 hPa4.8 kmWest (280°)20.4 km/h0 mmSnowLight Snow
12:53 PM-4.4 °C-7.2 °C81 %1016.6 hPa9.7 kmWest (280°)18.5 km/h37 km/h0 mmHaze
1:53 PM-3.9 °C-7.2 °C78 %1015.9 hPa12.9 kmWest (280°)20.4 km/h31.5 km/h0 mmOvercast
2:44 PM-4 °C-7 °C80 %1014.6 hPa16.1 kmWest (280°)18.5 km/hOvercast
2:53 PM-3.9 °C-6.7 °C81 %1016.6 hPa16.1 kmWest (280°)14.8 km/hOvercast
3:53 PM-3.9 °C-6.1 °C85 %1017.3 hPa14.5 kmWest (280°)20.4 km/hOvercast
4:53 PM-3.9 °C-5.6 °C88 %1017.6 hPa14.5 kmWest (270°)18.5 km/hOvercast
5:14 PM-3 °C-6 °C80 %1016.3 hPa16.1 kmWest (260°)20.4 km/hOvercast
5:53 PM-3.3 °C-6.1 °C81 %1018.6 hPa16.1 kmWest (270°)18.5 km/hOvercast
6:53 PM-3.3 °C-6.7 °C78 %1019 hPa16.1 kmWest (270°)14.8 km/hOvercast
7:53 PM-3.3 °C-6.7 °C78 %1019 hPa16.1 kmWest (270°)18.5 km/hOvercast
8:53 PM-3.3 °C-6.7 °C78 %1018.6 hPa16.1 kmWest (260°)16.7 km/hOvercast
9:53 PM-3.3 °C-6.7 °C78 %1018.3 hPa16.1 kmWest (260°)20.4 km/h35.2 km/hOvercast
10:53 PM-3.3 °C-6.7 °C78 %1017.6 hPa16.1 kmWSW (250°)20.4 km/h40.7 km/hOvercast
11:45 PM-4 °C-7 °C80 %1015.6 hPa12.9 kmWest (260°)24.1 km/h44.4 km/hOvercast
11:53 PM-3.9 °C-6.7 °C81 %1017.3 hPa14.5 kmWest (260°)20.4 km/h33.3 km/hOvercast
Hourly data recorded from KHTL, located 0 kilometers away from Houghton Lake, Michigan







STORIES FROM OUR PARTNERS